CCM151 LFML-LFKJ

Flight info

Callsign CCM151
Flight time 0h 51m
Altitude 23000
Route TINOT Z154 RUBAS
Aircraft A320/M-SDE3FGHIRWY/LB1

Departure

Time 2026-04-28 20:28
Airport Marseille Provence Airport (LFML)

Arrival

Time 2026-04-28 21:20
Airport Ajaccio Napoléon Bonaparte airport (LFKJ)
Time Latitude Longitude Altitude Speed Heading
2026-04-28 19:59 43.43922 5.22464 37 ft 0 kts 264°
2026-04-28 20:18 43.43922 5.22473 37 ft 4 kts 264°
2026-04-28 20:18 43.43926 5.22509 35 ft 4 kts 248°
2026-04-28 20:19 43.43940 5.22533 37 ft 2 kts 193°
2026-04-28 20:19 43.43942 5.22533 37 ft 0 kts 192°
2026-04-28 20:22 43.43912 5.22536 35 ft 10 kts 164°
2026-04-28 20:22 43.43811 5.22541 37 ft 18 kts 206°
2026-04-28 20:22 43.43749 5.22404 36 ft 17 kts 254°
2026-04-28 20:23 43.43740 5.22245 37 ft 17 kts 281°
2026-04-28 20:23 43.43689 5.22102 37 ft 17 kts 265°
2026-04-28 20:23 43.43768 5.22001 37 ft 15 kts 323°
2026-04-28 20:23 43.43840 5.21904 37 ft 14 kts 314°
2026-04-28 20:24 43.43908 5.21807 37 ft 17 kts 314°
2026-04-28 20:24 43.43981 5.21658 37 ft 18 kts 264°
2026-04-28 20:24 43.43920 5.21512 37 ft 18 kts 275°
2026-04-28 20:24 43.43999 5.21375 37 ft 19 kts 314°
2026-04-28 20:25 43.44094 5.21239 37 ft 21 kts 313°
2026-04-28 20:25 43.44199 5.21090 37 ft 23 kts 314°
2026-04-28 20:25 43.44298 5.20915 36 ft 24 kts 298°
2026-04-28 20:25 43.44406 5.20729 37 ft 26 kts 314°
2026-04-28 20:26 43.44532 5.20546 37 ft 27 kts 314°
2026-04-28 20:26 43.44647 5.20383 37 ft 19 kts 313°
2026-04-28 20:26 43.44651 5.20263 36 ft 11 kts 224°
2026-04-28 20:26 43.44587 5.20206 36 ft 11 kts 172°
2026-04-28 20:27 43.44565 5.20231 36 ft 0 kts 132°
2026-04-28 20:28 43.44470 5.20369 37 ft 57 kts 134°
2026-04-28 20:28 43.44030 5.20992 35 ft 121 kts 134°
2026-04-28 20:28 43.43332 5.21987 171 ft 157 kts 135°
2026-04-28 20:28 43.42557 5.23036 802 ft 158 kts 139°
2026-04-28 20:29 43.41630 5.23842 1464 ft 161 kts 148°
2026-04-28 20:29 43.40598 5.24708 1804 ft 186 kts 147°
2026-04-28 20:29 43.39424 5.25716 2199 ft 211 kts 147°
2026-04-28 20:29 43.38106 5.26855 2692 ft 236 kts 147°
2026-04-28 20:30 43.36668 5.28096 3424 ft 249 kts 147°
2026-04-28 20:30 43.35182 5.29375 4347 ft 255 kts 147°
2026-04-28 20:30 43.33667 5.30682 5238 ft 260 kts 147°
2026-04-28 20:30 43.32098 5.31968 6139 ft 265 kts 154°
2026-04-28 20:31 43.30328 5.32733 7003 ft 270 kts 170°
2026-04-28 20:31 43.28442 5.32876 7903 ft 273 kts 178°
2026-04-28 20:31 43.26521 5.32916 8724 ft 279 kts 179°
2026-04-28 20:31 43.24568 5.32961 9611 ft 282 kts 179°
2026-04-28 20:32 43.22587 5.33006 10336 ft 291 kts 179°
2026-04-28 20:32 43.20480 5.33055 10607 ft 315 kts 179°
2026-04-28 20:32 43.18203 5.33109 10830 ft 339 kts 179°
2026-04-28 20:32 43.15796 5.33167 11287 ft 351 kts 179°
2026-04-28 20:33 43.13336 5.33225 11979 ft 356 kts 180°
2026-04-28 20:33 43.10846 5.33284 12715 ft 360 kts 180°
2026-04-28 20:33 43.08328 5.33343 13400 ft 365 kts 180°
2026-04-28 20:33 43.05779 5.33398 14091 ft 368 kts 180°
2026-04-28 20:34 43.03239 5.33450 14712 ft 372 kts 180°
2026-04-28 20:34 43.00639 5.33498 15330 ft 375 kts 181°
2026-04-28 20:34 42.98019 5.33440 15958 ft 378 kts 183°
2026-04-28 20:34 42.95373 5.33302 16581 ft 382 kts 182°
2026-04-28 20:35 42.92726 5.33798 17180 ft 390 kts 164°
2026-04-28 20:35 42.90280 5.35449 17781 ft 398 kts 146°
2026-04-28 20:35 42.88325 5.38158 18351 ft 407 kts 126°
2026-04-28 20:35 42.86867 5.41504 18874 ft 412 kts 121°
2026-04-28 20:36 42.85446 5.44919 19414 ft 416 kts 121°
2026-04-28 20:36 42.84021 5.48361 19940 ft 419 kts 121°
2026-04-28 20:36 42.82580 5.51833 20479 ft 422 kts 122°
2026-04-28 20:36 42.81124 5.55322 20966 ft 425 kts 122°
2026-04-28 20:37 42.79654 5.58827 21459 ft 428 kts 122°
2026-04-28 20:37 42.78167 5.62355 21940 ft 431 kts 122°
2026-04-28 20:37 42.76668 5.65906 22409 ft 434 kts 122°
2026-04-28 20:37 42.75156 5.69480 22857 ft 437 kts 122°
2026-04-28 20:38 42.73635 5.73071 23022 ft 439 kts 122°
2026-04-28 20:38 42.72089 5.76718 23047 ft 451 kts 122°
2026-04-28 20:38 42.70506 5.80451 23043 ft 458 kts 122°
2026-04-28 20:38 42.68914 5.84207 23043 ft 459 kts 122°
2026-04-28 20:39 42.67318 5.87971 23043 ft 460 kts 122°
2026-04-28 20:39 42.65721 5.91736 23043 ft 460 kts 122°
2026-04-28 20:39 42.64121 5.95499 23038 ft 460 kts 122°
2026-04-28 20:39 42.62520 5.99259 23038 ft 460 kts 122°
2026-04-28 20:40 42.60916 6.03021 23038 ft 460 kts 122°
2026-04-28 20:40 42.59311 6.06773 23037 ft 460 kts 122°
2026-04-28 20:40 42.57704 6.10526 23023 ft 460 kts 122°
2026-04-28 20:40 42.56095 6.14281 23028 ft 460 kts 122°
2026-04-28 20:41 42.54490 6.18024 23032 ft 460 kts 122°
2026-04-28 20:41 42.52880 6.21766 23032 ft 460 kts 122°
2026-04-28 20:41 42.51267 6.25509 23032 ft 460 kts 122°
2026-04-28 20:41 42.49654 6.29248 23033 ft 459 kts 122°
2026-04-28 20:42 42.48043 6.32989 23033 ft 459 kts 122°
2026-04-28 20:42 42.46454 6.36675 23033 ft 459 kts 122°
2026-04-28 20:42 42.44820 6.40460 23034 ft 459 kts 122°
2026-04-28 20:42 42.43229 6.44140 23029 ft 459 kts 122°
2026-04-28 20:43 42.41614 6.47870 23022 ft 459 kts 122°
2026-04-28 20:43 42.40025 6.51569 23026 ft 449 kts 122°
2026-04-28 20:43 42.38444 6.55256 23029 ft 456 kts 121°
2026-04-28 20:43 42.37113 6.59165 23030 ft 460 kts 112°
2026-04-28 20:44 42.36031 6.63243 23030 ft 461 kts 111°
2026-04-28 20:44 42.34952 6.67319 23029 ft 461 kts 111°
2026-04-28 20:44 42.33871 6.71399 23035 ft 461 kts 111°
2026-04-28 20:44 42.32792 6.75474 23032 ft 461 kts 111°
2026-04-28 20:45 42.31714 6.79550 23029 ft 461 kts 111°
2026-04-28 20:45 42.30634 6.83626 23029 ft 461 kts 111°
2026-04-28 20:45 42.29552 6.87699 23033 ft 460 kts 112°
2026-04-28 20:45 42.28468 6.91764 23038 ft 460 kts 112°
2026-04-28 20:46 42.27383 6.95831 23041 ft 460 kts 112°
2026-04-28 20:46 42.26295 6.99894 23046 ft 460 kts 112°
2026-04-28 20:46 42.25208 7.03953 23047 ft 460 kts 112°
2026-04-28 20:46 42.24120 7.08011 23047 ft 460 kts 112°
2026-04-28 20:47 42.23031 7.12062 23048 ft 460 kts 112°
2026-04-28 20:47 42.21940 7.16114 23044 ft 460 kts 112°
2026-04-28 20:47 42.20850 7.20170 23044 ft 460 kts 112°
2026-04-28 20:47 42.19760 7.24220 23044 ft 460 kts 112°
2026-04-28 20:48 42.18668 7.28270 23043 ft 460 kts 112°
2026-04-28 20:48 42.17571 7.32321 23027 ft 459 kts 112°
2026-04-28 20:48 42.16482 7.36332 22429 ft 453 kts 112°
2026-04-28 20:48 42.15405 7.40302 21669 ft 448 kts 112°
2026-04-28 20:49 42.14337 7.44228 20960 ft 444 kts 112°
2026-04-28 20:49 42.13281 7.48107 20277 ft 439 kts 112°
2026-04-28 20:49 42.12231 7.51953 19621 ft 435 kts 112°
2026-04-28 20:49 42.11190 7.55754 18984 ft 431 kts 112°
2026-04-28 20:50 42.10159 7.59518 18367 ft 427 kts 112°
2026-04-28 20:50 42.09135 7.63247 17691 ft 423 kts 112°
2026-04-28 20:50 42.08119 7.66941 17059 ft 419 kts 112°
2026-04-28 20:50 42.07109 7.70607 16754 ft 418 kts 112°
2026-04-28 20:51 42.06107 7.74245 16495 ft 418 kts 112°
2026-04-28 20:51 42.05114 7.77858 16255 ft 416 kts 112°
2026-04-28 20:51 42.04113 7.81495 15936 ft 412 kts 112°
2026-04-28 20:51 42.03443 7.83925 15561 ft 408 kts 112°
2026-04-28 20:52 42.02138 7.88637 14822 ft 403 kts 112°
2026-04-28 20:52 42.01159 7.92149 14257 ft 400 kts 112°
2026-04-28 20:52 42.00185 7.95639 13652 ft 397 kts 112°
2026-04-28 20:52 41.99219 7.99098 13035 ft 393 kts 112°
2026-04-28 20:53 41.98069 8.05980 12722 ft 365 kts 94°
2026-04-28 20:53 41.98042 8.09326 12593 ft 351 kts 91°
2026-04-28 20:53 41.98030 8.12542 12465 ft 338 kts 91°
2026-04-28 20:54 41.98015 8.15646 12337 ft 326 kts 91°
2026-04-28 20:54 41.97998 8.18642 12208 ft 315 kts 92°
2026-04-28 20:54 41.97982 8.21558 11943 ft 310 kts 92°
2026-04-28 20:54 41.97966 8.24442 11608 ft 308 kts 92°
2026-04-28 20:55 41.97950 8.27302 11173 ft 304 kts 92°
2026-04-28 20:55 41.97934 8.30132 10534 ft 302 kts 92°
2026-04-28 20:55 41.97918 8.32936 10114 ft 298 kts 92°
2026-04-28 20:55 41.97899 8.35743 10005 ft 302 kts 92°
2026-04-28 20:56 41.97876 8.38577 9460 ft 302 kts 93°
2026-04-28 20:56 41.97503 8.41311 9072 ft 293 kts 114°
2026-04-28 20:56 41.96614 8.43755 9018 ft 291 kts 120°
2026-04-28 20:56 41.95688 8.46170 9022 ft 291 kts 120°
2026-04-28 20:57 41.94759 8.48584 9025 ft 291 kts 120°
2026-04-28 20:57 41.93828 8.50997 9023 ft 291 kts 120°
2026-04-28 20:57 41.92897 8.53409 9026 ft 291 kts 120°
2026-04-28 20:57 41.91966 8.55818 8977 ft 289 kts 120°
2026-04-28 20:58 41.91049 8.58189 8352 ft 284 kts 120°
2026-04-28 20:58 41.90141 8.60530 7698 ft 281 kts 120°
2026-04-28 20:58 41.89054 8.62628 7209 ft 265 kts 141°
2026-04-28 20:58 41.87585 8.63897 7084 ft 243 kts 161°
2026-04-28 20:59 41.86527 8.64294 6974 ft 235 kts 174°
2026-04-28 20:59 41.84923 8.64242 6681 ft 229 kts 193°
2026-04-28 20:59 41.83454 8.63459 6343 ft 228 kts 212°
2026-04-28 20:59 41.81972 8.61491 5849 ft 230 kts 237°
2026-04-28 21:00 41.81363 8.59502 5462 ft 234 kts 256°
2026-04-28 21:00 41.81296 8.57317 5090 ft 238 kts 277°
2026-04-28 21:00 41.81822 8.55221 5003 ft 241 kts 297°
2026-04-28 21:00 41.82480 8.53971 5007 ft 245 kts 309°
2026-04-28 21:01 41.83660 8.52303 5008 ft 247 kts 314°
2026-04-28 21:01 41.84901 8.50709 5005 ft 247 kts 315°
2026-04-28 21:01 41.86163 8.49136 5005 ft 247 kts 315°
2026-04-28 21:01 41.87423 8.47566 5005 ft 247 kts 315°
2026-04-28 21:02 41.88682 8.45991 5005 ft 247 kts 315°
2026-04-28 21:02 41.89995 8.44499 4996 ft 249 kts 327°
2026-04-28 21:02 41.91593 8.43631 5001 ft 250 kts 349°
2026-04-28 21:02 41.93317 8.43627 5002 ft 249 kts 13°
2026-04-28 21:03 41.94889 8.44474 5002 ft 247 kts 36°
2026-04-28 21:03 41.96129 8.46072 5006 ft 243 kts 58°
2026-04-28 21:03 41.96814 8.48085 5005 ft 240 kts 80°
2026-04-28 21:03 41.96923 8.50289 5005 ft 236 kts 101°
2026-04-28 21:04 41.96453 8.52366 5006 ft 232 kts 121°
2026-04-28 21:04 41.95502 8.54093 5008 ft 230 kts 135°
2026-04-28 21:04 41.94362 8.55641 5006 ft 230 kts 138°
2026-04-28 21:04 41.93212 8.57094 5006 ft 230 kts 139°
2026-04-28 21:05 41.92037 8.58552 5007 ft 230 kts 139°
2026-04-28 21:05 41.90864 8.60013 5007 ft 230 kts 139°
2026-04-28 21:05 41.89683 8.61461 5004 ft 230 kts 144°
2026-04-28 21:05 41.88244 8.62301 5003 ft 227 kts 173°
2026-04-28 21:06 41.86690 8.62070 5006 ft 228 kts 202°
2026-04-28 21:06 41.85415 8.60819 4912 ft 231 kts 231°
2026-04-28 21:06 41.84785 8.58841 4788 ft 236 kts 261°
2026-04-28 21:06 41.85005 8.56659 4655 ft 242 kts 293°
2026-04-28 21:07 41.86033 8.54876 4537 ft 245 kts 316°
2026-04-28 21:07 41.87280 8.53307 4411 ft 246 kts 316°
2026-04-28 21:07 41.88526 8.51729 4284 ft 246 kts 315°
2026-04-28 21:07 41.89766 8.50151 4159 ft 245 kts 315°
2026-04-28 21:08 41.91092 8.48719 4053 ft 245 kts 334°
2026-04-28 21:08 41.92733 8.48294 4001 ft 242 kts
2026-04-28 21:08 41.94280 8.49085 4004 ft 239 kts 41°
2026-04-28 21:08 41.95264 8.50818 4004 ft 234 kts 72°
2026-04-28 21:09 41.95440 8.52940 4005 ft 229 kts 103°
2026-04-28 21:09 41.94810 8.54862 4006 ft 226 kts 131°
2026-04-28 21:09 41.93707 8.56368 4006 ft 226 kts 137°
2026-04-28 21:09 41.92566 8.57824 4006 ft 227 kts 137°
2026-04-28 21:10 41.91418 8.59278 4007 ft 227 kts 137°
2026-04-28 21:10 41.90274 8.60729 4007 ft 227 kts 137°
2026-04-28 21:10 41.89014 8.61976 4003 ft 225 kts 158°
2026-04-28 21:10 41.87477 8.62270 4006 ft 226 kts 187°
2026-04-28 21:11 41.85947 8.61751 4005 ft 228 kts 201°
2026-04-28 21:11 41.84742 8.60486 4003 ft 217 kts 233°
2026-04-28 21:11 41.84183 8.58685 4000 ft 206 kts 260°
2026-04-28 21:11 41.84287 8.56789 4002 ft 207 kts 287°
2026-04-28 21:12 41.85031 8.55147 4004 ft 209 kts 316°
2026-04-28 21:12 41.86266 8.54148 4004 ft 209 kts 345°
2026-04-28 21:12 41.87700 8.54024 4005 ft 208 kts 13°
2026-04-28 21:12 41.89004 8.54778 4006 ft 204 kts 41°
2026-04-28 21:13 41.89899 8.56208 4006 ft 200 kts 68°
2026-04-28 21:13 41.90217 8.57960 4036 ft 185 kts 93°
2026-04-28 21:13 41.90074 8.59559 4017 ft 167 kts 102°
2026-04-28 21:13 41.89924 8.61029 3979 ft 153 kts 100°
2026-04-28 21:14 41.89797 8.62515 3931 ft 165 kts 99°
2026-04-28 21:14 41.89651 8.64048 3813 ft 166 kts 101°
2026-04-28 21:14 41.89476 8.65575 3690 ft 165 kts 101°
2026-04-28 21:14 41.89344 8.67107 3555 ft 166 kts 98°
2026-04-28 21:15 41.89233 8.68644 3358 ft 165 kts 98°
2026-04-28 21:15 41.89125 8.70166 3154 ft 164 kts 96°
2026-04-28 21:15 41.89192 8.71692 2935 ft 165 kts 80°
2026-04-28 21:15 41.89582 8.73129 2711 ft 165 kts 62°
2026-04-28 21:16 41.90285 8.74324 2527 ft 165 kts 40°
2026-04-28 21:16 41.91261 8.75111 2334 ft 162 kts 26°
2026-04-28 21:16 41.92287 8.75697 2119 ft 159 kts 25°
2026-04-28 21:16 41.93300 8.76262 1905 ft 156 kts 24°
2026-04-28 21:17 41.94271 8.76826 1747 ft 147 kts 26°
2026-04-28 21:17 41.95193 8.77397 1515 ft 144 kts 26°
2026-04-28 21:17 41.96085 8.77966 1298 ft 140 kts 30°
2026-04-28 21:17 41.96925 8.78620 1188 ft 141 kts 46°
2026-04-28 21:18 41.97213 8.79775 899 ft 134 kts 104°
2026-04-28 21:18 41.96677 8.80859 737 ft 149 kts 139°
2026-04-28 21:18 41.95701 8.81377 635 ft 154 kts 171°
2026-04-28 21:18 41.94668 8.81425 518 ft 147 kts 185°
2026-04-28 21:19 41.93702 8.81059 263 ft 144 kts 201°
2026-04-28 21:19 41.92793 8.80497 45 ft 142 kts 204°
2026-04-28 21:19 41.92010 8.80011 19 ft 99 kts 205°
2026-04-28 21:19 41.91539 8.79717 19 ft 53 kts 204°
2026-04-28 21:20 41.91313 8.79576 22 ft 20 kts 205°
2026-04-28 21:20 41.91242 8.79468 24 ft 15 kts 273°
2026-04-28 21:20 41.91313 8.79386 24 ft 14 kts 335°
2026-04-28 21:20 41.91384 8.79342 27 ft 10 kts 338°
2026-04-28 21:21 41.91455 8.79337 26 ft 13 kts
2026-04-28 21:21 41.91565 8.79399 26 ft 20 kts 25°
2026-04-28 21:21 41.91692 8.79478 30 ft 19 kts 24°
2026-04-28 21:21 41.91816 8.79555 28 ft 13 kts 25°
2026-04-28 21:22 41.91870 8.79572 30 ft 5 kts 319°
2026-04-28 21:22 41.91893 8.79546 26 ft 4 kts 333°
2026-04-28 21:22 41.91909 8.79539 26 ft 0 kts 345°